Hourly Weather Otoki

Today, 6 May, Thursday

Time Temperature Precipitation Wind Pressure Humidity
00:00 +3°C° 0 mm 5 mps 736 mmHg 78%
01:00 +2°C° 0 mm 5 mps 737 mmHg 80%
02:00 +2°C° 0 mm 5 mps 737 mmHg 81%
03:00 +1°C° 0 mm 4 mps 737 mmHg 82%
04:00 +1°C° 0 mm 4 mps 737 mmHg 83%
05:00 +3°C° 0 mm 4 mps 738 mmHg 78%
06:00 +5°C° 0 mm 4 mps 738 mmHg 72%
07:00 +6°C° 0 mm 4 mps 738 mmHg 68%
08:00 +7°C° 0 mm 5 mps 738 mmHg 62%
09:00 +8°C° 0 mm 6 mps 738 mmHg 57%
10:00 +10°C° 0 mm 6 mps 738 mmHg 52%
11:00 +10°C° 0.2 mm 6 mps 738 mmHg 53%
12:00 +10°C° 0.2 mm 7 mps 737 mmHg 55%
13:00 +10°C° 0.2 mm 7 mps 737 mmHg 57%
14:00 +11°C° 0.1 mm 7 mps 737 mmHg 56%
15:00 +11°C° 0.1 mm 6 mps 736 mmHg 56%
16:00 +12°C° 0.1 mm 5 mps 736 mmHg 55%
17:00 +10°C° 0.1 mm 5 mps 736 mmHg 62%
18:00 +10°C° 0.1 mm 4 mps 736 mmHg 69%
19:00 +9°C° 0.1 mm 3 mps 735 mmHg 76%
20:00 +8°C° 0.1 mm 4 mps 735 mmHg 76%
21:00 +7°C° 0.1 mm 4 mps 735 mmHg 76%
22:00 +7°C° 0.1 mm 4 mps 735 mmHg 77%
23:00 +6°C° 0.2 mm 4 mps 735 mmHg 80%

Tomorrow, 7 May, Friday

Time Temperature Precipitation Wind Pressure Humidity
00:00 +7°C° 0.2 mm 3 mps 734 mmHg 83%
01:00 +7°C° 0.2 mm 2 mps 734 mmHg 87%
02:00 +7°C° 0.1 mm 3 mps 733 mmHg 86%
03:00 +6°C° 0.1 mm 4 mps 733 mmHg 86%
04:00 +6°C° 0.1 mm 4 mps 732 mmHg 85%
05:00 +7°C° 0.1 mm 5 mps 732 mmHg 84%
06:00 +7°C° 0.1 mm 6 mps 732 mmHg 84%
07:00 +8°C° 0.1 mm 6 mps 732 mmHg 83%
08:00 +8°C° 0.1 mm 7 mps 733 mmHg 79%
09:00 +9°C° 0.1 mm 7 mps 733 mmHg 76%
10:00 +9°C° 0.1 mm 8 mps 734 mmHg 73%
11:00 +9°C° 0.1 mm 8 mps 734 mmHg 69%
12:00 +8°C° 0.1 mm 9 mps 735 mmHg 66%
13:00 +10°C° 0.1 mm 9 mps 735 mmHg 63%
14:00 +9°C° 0.1 mm 8 mps 736 mmHg 65%
15:00 +7°C° 0.1 mm 8 mps 737 mmHg 67%
16:00 +6°C° 0.1 mm 8 mps 738 mmHg 69%
17:00 +5°C° 0 mm 7 mps 739 mmHg 73%
18:00 +3°C° 0 mm 6 mps 739 mmHg 76%
19:00 +2°C° 0 mm 6 mps 740 mmHg 79%
20:00 +1°C° 0 mm 5 mps 741 mmHg 80%
21:00 +1°C° 0 mm 4 mps 741 mmHg 82%
22:00 +1°C° 0 mm 3 mps 742 mmHg 84%
23:00 +1°C° 0 mm 3 mps 742 mmHg 83%

Day after tomorrow, 8 May, Saturday

Time Temperature Precipitation Wind Pressure Humidity
00:00 +1°C° 0 mm 3 mps 742 mmHg 82%
01:00 +1°C° 0 mm 3 mps 743 mmHg 82%
02:00 +1°C° 0 mm 3 mps 743 mmHg 83%
03:00 0°C° 0 mm 3 mps 744 mmHg 84%
04:00 0°C° 0 mm 3 mps 744 mmHg 85%
05:00 +2°C° 0 mm 3 mps 744 mmHg 79%
06:00 +4°C° 0 mm 3 mps 745 mmHg 73%
07:00 +7°C° 0 mm 3 mps 745 mmHg 66%
08:00 +7°C° 0.1 mm 4 mps 745 mmHg 62%
09:00 +8°C° 0.1 mm 4 mps 745 mmHg 58%
10:00 +10°C° 0.1 mm 4 mps 745 mmHg 54%
11:00 +11°C° 0.1 mm 4 mps 745 mmHg 51%
12:00 +11°C° 0.1 mm 4 mps 745 mmHg 49%
13:00 +12°C° 0.1 mm 4 mps 745 mmHg 46%
14:00 +12°C° 0 mm 4 mps 745 mmHg 48%
15:00 +12°C° 0 mm 4 mps 745 mmHg 50%
16:00 +12°C° 0 mm 3 mps 745 mmHg 51%
17:00 +10°C° 0 mm 2 mps 745 mmHg 59%
18:00 +10°C° 0 mm 1 mps 745 mmHg 66%
19:00 +8°C° 0 mm 1 mps 745 mmHg 73%
20:00 +8°C° 0 mm 1 mps 745 mmHg 73%
21:00 +6°C° 0 mm 2 mps 745 mmHg 74%
22:00 +6°C° 0 mm 2 mps 745 mmHg 75%
23:00 +4°C° 0 mm 3 mps 745 mmHg 75%

9 May, Sunday

Time Temperature Precipitation Wind Pressure Humidity
00:00 +4°C° 0 mm 3 mps 745 mmHg 75%
01:00 +4°C° 0 mm 3 mps 744 mmHg 76%
02:00 +4°C° 0 mm 3 mps 744 mmHg 75%
03:00 +4°C° 0 mm 4 mps 744 mmHg 74%
04:00 +5°C° 0 mm 4 mps 744 mmHg 73%
05:00 +6°C° 0 mm 4 mps 744 mmHg 70%
06:00 +8°C° 0 mm 5 mps 743 mmHg 67%
07:00 +9°C° 0 mm 5 mps 743 mmHg 64%
08:00 +11°C° 0 mm 6 mps 743 mmHg 61%
09:00 +14°C° 0 mm 6 mps 743 mmHg 57%
10:00 +15°C° 0 mm 7 mps 743 mmHg 54%
11:00 +16°C° 0 mm 7 mps 743 mmHg 53%
12:00 +17°C° 0 mm 7 mps 743 mmHg 52%
13:00 +18°C° 0 mm 7 mps 742 mmHg 50%
14:00 +19°C° 0 mm 6 mps 742 mmHg 52%
15:00 +19°C° 0 mm 6 mps 742 mmHg 54%
16:00 +19°C° 0 mm 6 mps 742 mmHg 55%
17:00 +16°C° 0 mm 6 mps 742 mmHg 58%
18:00 +15°C° 0 mm 6 mps 741 mmHg 61%
19:00 +13°C° 0 mm 6 mps 741 mmHg 63%
20:00 +13°C° 0 mm 6 mps 741 mmHg 63%
21:00 +11°C° 0 mm 6 mps 741 mmHg 62%
22:00 +10°C° 0 mm 5 mps 741 mmHg 61%
23:00 +10°C° 0 mm 5 mps 741 mmHg 63%

10 May, Monday

Time Temperature Precipitation Wind Pressure Humidity
00:00 +10°C° 0 mm 5 mps 741 mmHg 64%
01:00 +9°C° 0 mm 5 mps 741 mmHg 66%
02:00 +9°C° 0 mm 5 mps 741 mmHg 67%
03:00 +10°C° 0 mm 4 mps 740 mmHg 69%
04:00 +8°C° 0 mm 4 mps 740 mmHg 70%
05:00 +11°C° 0 mm 4 mps 740 mmHg 69%
06:00 +12°C° 0 mm 5 mps 740 mmHg 67%
07:00 +14°C° 0 mm 5 mps 740 mmHg 66%
08:00 +15°C° 0 mm 6 mps 740 mmHg 63%
09:00 +17°C° 0 mm 6 mps 740 mmHg 60%
10:00 +20°C° 0 mm 7 mps 740 mmHg 57%
11:00 +21°C° 0 mm 7 mps 740 mmHg 56%
12:00 +21°C° 0 mm 7 mps 740 mmHg 56%
13:00 +22°C° 0 mm 7 mps 740 mmHg 56%
14:00 +22°C° 0 mm 7 mps 740 mmHg 58%
15:00 +22°C° 0 mm 6 mps 740 mmHg 60%
16:00 +22°C° 0 mm 6 mps 740 mmHg 62%
17:00 +20°C° 0 mm 5 mps 740 mmHg 67%
18:00 +19°C° 0 mm 5 mps 740 mmHg 72%
19:00 +18°C° 0 mm 4 mps 740 mmHg 76%
20:00 +17°C° 0 mm 4 mps 740 mmHg 77%
21:00 +15°C° 0 mm 4 mps 739 mmHg 79%
22:00 +14°C° 0 mm 4 mps 739 mmHg 80%
23:00 +14°C° 0 mm 4 mps 739 mmHg 80%

11 May, Tuesday

Time Temperature Precipitation Wind Pressure Humidity
00:00 +14°C° 0 mm 4 mps 738 mmHg 80%
01:00 +14°C° 0 mm 4 mps 738 mmHg 80%
02:00 +13°C° 0 mm 4 mps 738 mmHg 80%
03:00 +13°C° 0 mm 4 mps 737 mmHg 80%
04:00 +13°C° 0 mm 4 mps 737 mmHg 80%
05:00 +15°C° 0 mm 5 mps 737 mmHg 76%
06:00 +16°C° 0 mm 5 mps 737 mmHg 72%
07:00 +17°C° 0 mm 5 mps 738 mmHg 68%
08:00 +20°C° 0 mm 6 mps 738 mmHg 65%
09:00 +21°C° 0 mm 6 mps 738 mmHg 61%
10:00 +22°C° 0 mm 7 mps 738 mmHg 58%
11:00 +23°C° 0 mm 7 mps 738 mmHg 57%
12:00 +23°C° 0 mm 7 mps 738 mmHg 57%
13:00 +24°C° 0 mm 6 mps 738 mmHg 56%
14:00 +24°C° 0 mm 6 mps 738 mmHg 57%
15:00 +24°C° 0 mm 6 mps 738 mmHg 59%
16:00 +25°C° 0 mm 5 mps 738 mmHg 60%
17:00 +22°C° 0 mm 5 mps 738 mmHg 64%
18:00 +21°C° 0 mm 5 mps 738 mmHg 68%
19:00 +19°C° 0 mm 4 mps 737 mmHg 73%
20:00 +18°C° 0 mm 4 mps 737 mmHg 74%
21:00 +18°C° 0 mm 4 mps 737 mmHg 75%
22:00 +17°C° 0 mm 4 mps 737 mmHg 76%
23:00 +15°C° 0 mm 4 mps 737 mmHg 76%
Show more

We Need Your Consent

Meteoprog and our Service Providers may store and access personal data such as cookies, device identifiers or other similar technologies on your device and process such data to personalise content and ads, as well as provide social media features and to analyse the traffic.

  • Store and/or access information on your device

    Cookies, device identifiers or other information can be stored or accessed on your device for the purposes indicated above.

  • Personalised ads and content, ad and content measurement, audience insights, and products development

    Ads and content can be personalised based on a profile. More data can be added to better personalise ads and content. Ad and content performance can be measured. Insights about the audience who saw the ads and content can be derived. Such data can be used to develop or improve user’s experience, systems and software.

By clicking ‘I Agree’ you will allow the use of indicated cookies, device identifiers, web beacons or other similar technologies. Your settings can be changed in the browser on your device.

For certain purposes, legitimate interests may be relied on, rather than consent. You can read more about this in our Privacy and Cookie Policy.